Location: Johnson City
(36.3130°N, 82.3540°W)
Time: 20:34:00
(UTC-05:00)

ISS - Visible Passes

Search period start: 30 November 2021 00:00
Search period end: 10 December 2021 00:00
Orbit: 417 x 423 km, 51.6° (Epoch: 30 November)

Date Brightness Start Highest point End Pass type
(mag) Time Alt. Az. Time Alt. Az. Time Alt. Az.
03 Dec -1.3 19:01:28 10° NNW 19:02:09 14° NNW 19:02:09 14° NNW visible
04 Dec -1.9 18:14:38 10° NNW 18:16:52 16° NNE 18:17:14 16° NE visible
05 Dec -2.5 19:03:25 10° NW 19:05:31 34° NNW 19:05:31 34° NNW visible
06 Dec -3.1 18:16:20 10° NW 18:19:31 36° NE 18:21:02 23° E visible
06 Dec -0.3 19:53:38 10° W 19:54:06 12° W 19:54:06 12° W visible
07 Dec -2.2 19:05:54 10° WNW 19:09:02 35° SW 19:10:01 28° S visible
08 Dec -3.4 18:18:29 10° NW 18:21:51 67° SW 18:25:12 10° SE visible
09 Dec -0.2 19:10:19 10° WSW 19:10:59 10° SW 19:11:39 10° SW visible
